Probability
6 10 10 13 10 13 6 3 3 3 0 0 3 6 3 3 3 3 3 6 29 39 39 35 35 35 48 52 48 55 52 52 55 48 42 48 39 35 35 42 32 42 52
6 10 6 6 6 10 3 3 3 0 0 3 10 6 0 3 3 3 0 3 6 29 39 45 32 32 32 35 39 42 42 45 48 39 35 29 26 29 32 29 29 26 29
6 10 10 10 10 6 6 3 3 0 0 3 6 3 0 3 6 3 0 0 3 10 16 29 26 26 23 26 26 32 39 35 35 35 35 26 26 26 19 26 29 19 16
6 3 6 6 6 3 6 6 0 3 3 3 6 3 0 0 0 0 0 0 0 0 3 13 19 13 10 13 13 13 23 29 29 26 29 26 23 19 16 13 16 16 13
10 10 10 6 6 6 3 3 3 0 3 0 0 0 0 0 0 0 0 0 0 0 0 0 6 6 6 10 6 10 16 16 23 26 29 19 19 19 13 13 16 6 3
6 6 6 3 3 3 3 0 3 0 0 0 0 0 0 0 0 0 0 0 0 0 0 0 0 0 6 6 6 10 10 10 19 16 16 19 13 13 10 10 6 6 6
6 6 10 3 3 3 3 0 0 0 0 0 0 0 0 0 0 0 0 0 0 0 0 0 0 0 3 10 6 10 10 3 10 13 16 16 16 10 10 6 6 3 3
6 6 6 3 0 0 0 0 0 0 0 0 0 0 0 0 0 0 0 0 0 0 0 0 0 0 0 0 0 6 6 10 3 6 13 16 16 13 10 10 6 6 3
10 10 6 6 3 0 0 0 0 0 0 0 0 0 0 0 0 0 0 0 0 0 0 0 0 0 0 0 0 0 10 10 6 3 10 16 13 13 13 13 13 10 3
6 6 3 3 3 0 3 0 3 0 0 0 0 0 0 0 0 0 0 0 0 0 0 0 0 0 0 0 0 0 3 0 10 6 6 6 10 13 19 16 10 10 10
6 6 6 3 3 3 3 3 3 0 0 0 0 0 0 0 0 0 0 0 0 0 0 0 0 0 0 0 0 0 0 0 0 3 6 6 6 13 10 6 6 10 10
0 0 0 3 3 3 3 0 0 0 0 0 0 0 0 0 0 0 0 0 0 0 0 0 0 0 0 0 0 0 0 0 0 0 0 3 6 10 6 10 3 3 3
0 0 0 0 0 0 0 0 0 0 0 0 0 0 0 0 0 0 0 0 0 0 0 0 0 0 0 0 0 0 0 0 0 0 0 0 0 0 0 3 10 6 3
0 0 0 0 0 0 0 0 0 0 0 0 0 0 0 0 0 0 0 0 0 0 0 0 0 0 0 0 0 0 0 0 0 0 0 0 0 0 0 0 0 0 0
0 0 0 0 0 0 0 0 0 0 0 0 0 0 0 0 0 0 0 0 0 0 0 0 0 0 0 0 0 0 0 0 0 0 0 0 0 0 0 0 0 0 0
0 0 0 0 0 0 0 0 0 0 0 0 0 0 0 0 0 0 0 0 0 0 0 0 0 0 0 0 0 0 0 0 0 0 0 0 0 0 0 0 0 0 0
0 0 0 0 0 0 0 0 0 0 0 0 0 0 0 0 0 0 0 0 0 0 0 0 0 0 0 0 0 0 0 0 0 0 0 0 0 0 0 0 0 0 0
0 0 0 0 0 0 0 0 0 0 0 0 0 0 0 0 0 0 0 0 0 0 0 0 0 0 0 0 0 0 0 0 0 0 0 0 0 0 0 0 0 0 0
0 0 0 0 0 0 0 0 0 0 0 0 0 0 0 0 0 0 0 0 0 0 0 0 0 0 0 0 0 0 0 0 0 0 0 0 0 0 0 0 0 0 0
0 0 0 0 0 0 0 0 0 0 0 0 0 0 0 0 0 0 0 0 0 0 0 0 0 0 0 0 0 0 0 0 0 0 0 0 0 0 0 0 0 0 0
0 0 0 0 0 0 0 0 0 0 0 0 0 0 0 0 0 0 0 0 0 0 0 0 0 0 0 0 0 0 0 0 0 0 0 0 0 0 0 0 0 0 0
0 0 0 0 0 0 0 0 0 0 0 0 0 0 0 0 0 0 0 0 0 0 0 0 0 0 0 0 0 0 0 0 0 0 0 0 0 0 0 0 0 0 0
0 0 0 0 0 0 0 0 0 0 0 0 0 0 0 0 0 0 0 0 0 0 0 0 0 0 0 0 0 0 0 0 0 0 0 0 0 0 0 0 0 0 0
0 0 0 0 0 0 0 0 0 0 0 0 0 0 0 0 0 0 0 0 0 0 0 0 0 0 0 0 0 0 0 0 0 0 0 0 0 0 0 0 0 0 0
0 0 0 0 0 0 0 0 0 0 0 0 0 0 0 0 0 0 0 0 0 0 0 0 0 0 0 0 0 0 0 0 0 0 0 0 0 0 0 0 0 0 0
0 0 0 0 0 0 0 0 0 0 0 0 0 0 0 0 0 0 0 0 0 0 0 0 0 0 0 0 0 0 0 0 0 0 0 0 0 0 0 0 0 0 0
Height
5855 5854 5853 5852 5852 5851 5851 5850 5849 5848 5848 5847 5847 5847 5847 5847 5847 5847 5847 5847 5847 5847 5846 5847 5847 5848 5848 5849 5849 5850 5851 5851 5852 5853 5854 5855 5856 5857 5857 5858 5859 5860 5861
5851 5850 5849 5848 5847 5846 5846 5845 5844 5843 5842 5842 5842 5841 5841 5841 5841 5841 5841 5841 5841 5840 5840 5841 5841 5842 5842 5843 5843 5844 5845 5845 5847 5848 5849 5850 5851 5851 5852 5853 5854 5855 5856
5846 5845 5844 5843 5842 5841 5840 5839 5838 5838 5837 5836 5836 5836 5835 5835 5834 5834 5834 5834 5834 5834 5834 5835 5835 5835 5836 5836 5837 5838 5839 5840 5841 5842 5843 5844 5845 5846 5846 5847 5848 5849 5850
5841 5840 5839 5838 5837 5836 5835 5834 5833 5832 5831 5830 5830 5829 5829 5828 5828 5828 5828 5828 5828 5828 5828 5828 5829 5829 5829 5830 5831 5832 5833 5834 5835 5836 5837 5838 5839 5840 5841 5841 5842 5843 5844
5835 5834 5833 5832 5831 5830 5829 5828 5827 5826 5825 5824 5823 5822 5822 5822 5821 5821 5821 5821 5821 5821 5822 5822 5822 5823 5823 5823 5824 5825 5826 5827 5828 5829 5830 5831 5832 5833 5834 5835 5836 5837 5838
5830 5829 5827 5826 5825 5824 5823 5822 5821 5820 5819 5817 5816 5815 5815 5815 5814 5814 5814 5814 5814 5814 5814 5815 5815 5816 5816 5817 5818 5819 5820 5821 5822 5823 5824 5825 5826 5826 5827 5828 5829 5830 5831
5824 5823 5822 5820 5819 5817 5816 5815 5813 5812 5811 5810 5810 5809 5808 5807 5807 5807 5807 5807 5807 5807 5807 5807 5807 5808 5809 5810 5810 5811 5813 5814 5815 5816 5817 5818 5819 5820 5821 5822 5822 5824 5825
5818 5816 5815 5814 5812 5810 5809 5807 5806 5805 5804 5803 5802 5801 5801 5800 5799 5799 5799 5799 5799 5799 5799 5799 5800 5801 5801 5802 5803 5804 5805 5806 5808 5808 5809 5810 5811 5812 5814 5815 5816 5817 5818
5812 5810 5808 5807 5805 5804 5802 5800 5799 5798 5796 5795 5794 5794 5793 5793 5792 5792 5791 5791 5791 5791 5791 5792 5792 5793 5793 5794 5795 5797 5798 5799 5800 5801 5802 5803 5804 5805 5806 5807 5809 5809 5810
5805 5803 5801 5800 5798 5796 5795 5793 5792 5790 5789 5788 5787 5786 5785 5785 5784 5784 5783 5783 5783 5783 5783 5783 5784 5785 5785 5786 5787 5789 5790 5791 5792 5793 5794 5795 5796 5797 5798 5800 5801 5802 5803
5798 5796 5794 5793 5791 5789 5787 5786 5784 5783 5782 5781 5779 5778 5777 5776 5776 5776 5776 5775 5775 5774 5774 5775 5775 5776 5777 5778 5779 5780 5782 5783 5784 5785 5786 5787 5788 5790 5791 5792 5793 5794 5795
5792 5790 5788 5786 5784 5782 5780 5778 5777 5776 5774 5773 5772 5771 5770 5769 5768 5767 5767 5767 5766 5766 5765 5766 5766 5767 5768 5769 5771 5772 5773 5775 5776 5777 5778 5779 5780 5781 5783 5784 5785 5787 5788
5786 5784 5782 5779 5777 5775 5773 5771 5769 5768 5767 5765 5764 5762 5762 5761 5760 5760 5759 5758 5758 5758 5757 5757 5757 5758 5759 5761 5762 5763 5765 5766 5767 5768 5769 5770 5771 5773 5774 5776 5777 5779 5780
5779 5777 5775 5772 5770 5768 5765 5763 5761 5760 5758 5757 5756 5755 5754 5754 5753 5752 5751 5750 5750 5750 5749 5749 5749 5749 5750 5752 5753 5754 5756 5757 5758 5759 5761 5762 5763 5765 5766 5768 5769 5771 5772
5773 5770 5768 5765 5763 5761 5758 5756 5754 5752 5751 5749 5748 5747 5747 5746 5745 5744 5743 5742 5742 5742 5742 5741 5741 5741 5742 5743 5744 5746 5747 5748 5750 5751 5752 5754 5755 5757 5758 5760 5761 5762 5764
5767 5764 5762 5759 5757 5754 5752 5749 5747 5746 5744 5743 5742 5741 5739 5738 5737 5736 5735 5734 5734 5734 5734 5734 5733 5734 5734 5735 5736 5737 5738 5739 5741 5742 5744 5745 5747 5748 5750 5751 5753 5754 5755
5761 5759 5756 5753 5751 5748 5746 5744 5741 5740 5738 5736 5735 5734 5733 5732 5730 5729 5728 5727 5726 5726 5726 5726 5726 5726 5727 5728 5728 5729 5730 5731 5732 5734 5736 5737 5738 5740 5741 5743 5744 5746 5747
5757 5754 5751 5748 5745 5743 5741 5738 5736 5734 5733 5731 5729 5728 5727 5725 5724 5723 5722 5721 5719 5718 5718 5719 5719 5719 5719 5720 5721 5721 5722 5723 5725 5726 5728 5729 5731 5732 5733 5735 5736 5738 5739
5752 5749 5746 5743 5740 5738 5736 5733 5731 5729 5728 5726 5724 5722 5721 5720 5719 5717 5716 5715 5713 5712 5712 5712 5712 5712 5713 5713 5714 5714 5715 5716 5718 5719 5720 5722 5723 5725 5726 5727 5729 5730 5731
5747 5744 5742 5739 5736 5734 5732 5730 5728 5725 5723 5721 5719 5718 5716 5715 5713 5712 5710 5709 5708 5707 5707 5707 5707 5706 5707 5707 5708 5709 5709 5710 5711 5712 5713 5715 5716 5718 5719 5720 5722 5723 5724
5744 5741 5738 5736 5733 5731 5729 5726 5724 5722 5720 5718 5716 5714 5712 5710 5709 5707 5706 5705 5704 5703 5702 5702 5701 5701 5702 5702 5703 5704 5705 5705 5706 5707 5708 5709 5710 5712 5713 5714 5715 5716 5717
5741 5738 5735 5733 5730 5728 5726 5723 5721 5719 5717 5715 5713 5711 5709 5707 5706 5704 5702 5701 5700 5699 5698 5698 5697 5697 5697 5698 5699 5700 5700 5701 5702 5703 5704 5704 5705 5706 5707 5709 5710 5711 5712
5739 5736 5733 5731 5728 5726 5724 5721 5719 5717 5715 5713 5711 5709 5707 5705 5703 5701 5700 5699 5697 5696 5695 5694 5694 5694 5694 5695 5696 5696 5697 5698 5699 5699 5700 5701 5701 5702 5703 5704 5705 5706 5706
5737 5735 5732 5730 5727 5725 5723 5720 5718 5716 5714 5712 5710 5708 5706 5704 5702 5700 5699 5697 5696 5694 5693 5692 5692 5692 5692 5692 5693 5694 5695 5695 5696 5696 5697 5698 5698 5699 5699 5700 5700 5701 5701
5736 5734 5731 5729 5727 5724 5722 5720 5718 5716 5713 5711 5709 5707 5705 5703 5701 5699 5698 5696 5695 5694 5692 5691 5691 5690 5690 5691 5691 5692 5692 5693 5693 5694 5695 5695 5695 5696 5696 5696 5697 5697 5697
5735 5733 5730 5728 5726 5724 5722 5720 5717 5715 5713 5711 5708 5706 5704 5702 5701 5699 5698 5696 5695 5693 5692 5691 5691 5690 5690 5690 5690 5691 5691 5691 5692 5692 5693 5693 5693 5693 5693 5693 5693 5693 5693
Wind_Speed
20 21 21 22 22 23 23 24 24 24 25 25 24 24 24 24 24 24 24 24 25 25 25 24 24 23 23 23 23 23 22 22 22 21 21 21 21 21 22 22 22 22 22
21 21 22 22 23 23 23 23 24 24 25 25 24 25 25 25 26 26 26 26 26 26 26 25 25 25 25 25 24 24 24 23 23 24 23 23 23 22 23 23 23 24 24
21 21 21 23 24 24 24 24 25 25 26 26 26 26 26 26 26 26 26 25 26 26 26 26 26 26 26 26 25 25 25 25 25 24 25 25 24 24 24 24 24 25 25
22 22 22 23 23 24 24 25 25 25 25 26 26 26 26 27 27 26 26 26 26 26 25 25 26 26 27 27 27 26 26 26 26 25 26 26 26 26 26 25 25 25 26
22 22 22 23 24 25 25 25 25 25 25 26 26 27 27 27 27 27 27 27 27 27 27 27 27 27 27 27 26 26 26 26 27 27 27 27 28 27 27 27 26 26 26
23 23 23 24 25 26 26 26 26 27 27 26 27 27 27 27 28 28 28 27 27 27 28 28 28 28 28 27 27 27 27 27 28 27 27 27 28 28 28 27 27 26 26
24 24 25 25 26 26 27 27 28 28 28 28 28 27 27 28 29 28 28 28 28 28 28 28 28 28 28 28 28 28 28 28 28 28 28 28 27 27 27 27 27 28 27
25 26 26 26 27 27 27 27 28 29 29 28 28 28 28 28 28 29 29 29 29 29 29 28 29 29 29 29 28 28 28 28 28 28 29 29 28 28 28 29 28 28 28
26 26 27 27 28 28 28 28 28 28 28 28 28 28 28 28 28 28 28 28 28 29 29 29 29 29 29 30 29 29 28 27 28 29 29 29 30 29 29 29 29 29 29
25 26 26 27 27 27 27 27 27 27 27 28 29 28 28 28 27 27 28 28 29 29 30 30 30 30 30 29 29 30 29 29 30 31 31 31 30 30 29 28 29 29 30
24 25 24 25 25 26 26 27 27 27 28 28 28 28 28 29 28 27 28 28 29 30 30 30 31 31 31 31 31 31 31 31 32 33 32 32 31 31 30 30 30 30 30
23 24 24 25 25 26 27 27 27 28 28 29 28 29 29 29 28 28 29 29 29 29 30 30 31 32 32 32 32 33 33 33 32 32 33 33 32 31 31 31 31 31 30
25 25 25 25 25 26 27 28 29 29 29 28 28 28 27 27 28 28 29 29 29 29 30 30 31 32 33 33 33 33 34 33 33 33 33 32 32 31 31 31 31 30 30
25 25 26 26 26 26 27 28 28 28 29 28 27 27 27 27 27 28 28 28 28 28 29 30 31 32 32 32 32 32 33 33 33 33 32 32 32 32 31 31 31 30 30
24 25 26 27 27 27 26 25 26 26 26 26 26 26 26 26 27 27 27 27 27 27 27 27 28 29 30 30 31 31 32 32 32 32 32 32 32 32 32 31 31 31 31
24 24 25 25 26 26 25 25 24 24 24 24 24 24 24 23 24 25 26 26 26 26 26 26 26 26 27 27 29 29 30 31 31 31 31 31 31 31 31 31 31 31 31
23 23 23 24 24 24 23 23 22 22 22 22 22 22 22 22 22 24 24 24 25 25 25 24 24 25 25 25 25 27 28 29 30 30 30 29 29 28 29 29 30 30 30
22 23 23 23 22 22 22 22 21 21 20 20 20 20 20 20 21 22 22 23 23 22 22 22 22 23 24 25 24 24 26 26 26 27 27 27 28 28 27 28 28 29 29
21 22 22 21 21 20 20 19 18 18 18 18 18 18 18 19 19 19 19 19 20 20 20 20 21 22 23 23 22 22 23 24 24 25 25 25 25 26 26 26 27 27 28
19 19 19 19 18 18 18 17 17 16 16 16 16 17 17 17 17 17 17 17 17 18 18 19 19 19 19 19 20 19 20 19 19 20 21 22 23 24 23 23 24 25 25
16 16 16 16 16 17 16 16 16 15 14 14 14 14 14 15 14 15 15 15 16 15 16 16 16 15 16 16 16 16 16 16 16 16 17 18 19 20 20 20 21 22 22
14 14 15 15 15 14 14 14 14 13 12 12 12 12 12 13 13 13 13 13 13 13 13 13 13 12 12 13 13 13 14 14 14 14 14 15 16 16 17 18 18 19 19
14 14 14 14 13 13 13 12 12 11 11 11 11 11 12 12 11 10 10 10 10 10 10 10 9 8 9 10 10 10 11 11 11 12 12 12 13 13 14 15 16 17 17
13 13 13 13 13 12 12 11 11 10 10 10 10 11 11 11 10 9 9 9 9 8 7 6 6 5 5 6 7 7 8 8 8 9 9 9 10 11 12 13 13 14 14
12 12 12 12 11 11 11 11 10 10 10 11 11 11 11 10 9 8 8 8 8 8 6 5 5 4 4 5 5 5 5 5 6 6 7 7 8 9 10 11 13 13 14
12 12 11 11 11 11 11 11 11 10 11 11 11 10 10 9 8 8 8 8 7 6 5 5 4 3 2 3 3 3 3 4 5 5 6 6 8 9 10 12 13 14 15
Wind_Direction
286 283 282 283 281 280 281 279 277 276 275 274 274 273 273 272 273 273 273 272 271 270 267 265 265 265 262 261 259 258 257 257 256 254 255 256 256 258 256 256 254 253 254
287 284 282 281 280 280 281 280 278 276 275 275 274 274 274 275 274 273 272 272 271 269 266 264 265 265 263 262 259 258 256 255 255 255 254 254 255 257 257 256 255 254 254
285 282 282 283 282 280 281 282 282 278 274 272 273 273 272 273 274 272 271 270 269 268 266 265 264 264 262 261 259 258 258 257 257 257 256 255 255 256 256 255 255 255 253
284 282 283 284 283 282 283 284 285 281 275 273 273 272 272 272 272 271 270 268 267 267 266 264 264 264 262 260 260 259 258 257 257 258 258 256 256 257 256 254 254 256 256
286 285 283 282 283 283 282 282 283 282 278 276 274 273 273 272 270 269 270 269 267 266 265 263 263 263 261 261 261 259 259 257 257 258 259 259 258 258 256 254 255 256 256
288 287 285 284 284 283 282 282 283 283 280 278 277 275 274 272 270 270 271 269 268 266 264 263 262 260 259 260 260 259 258 258 257 256 258 259 259 256 256 256 256 256 256
287 288 288 286 285 284 283 282 284 284 281 280 279 276 275 272 272 271 271 271 269 267 265 264 263 260 259 259 260 259 258 258 258 257 257 258 258 257 256 256 257 257 256
286 287 287 287 285 283 282 283 284 283 282 280 278 277 275 273 272 272 271 270 269 267 265 265 263 261 259 259 259 259 259 257 257 258 258 257 257 257 256 256 257 258 257
286 286 285 284 284 283 283 283 283 283 282 280 278 278 277 275 273 273 273 272 270 267 266 265 263 262 261 260 259 258 258 257 257 258 258 258 258 258 258 257 257 258 258
288 288 286 285 285 285 283 281 282 282 282 281 278 278 277 276 273 272 272 271 270 269 266 264 262 261 260 260 260 259 258 256 257 256 257 258 259 258 259 260 260 260 260
291 291 289 288 288 287 285 282 281 281 281 280 279 278 277 276 274 274 272 270 270 269 268 265 263 261 260 259 259 259 258 256 256 257 258 258 259 259 259 261 262 261 262
292 293 292 290 288 285 284 283 282 281 281 279 278 277 277 276 274 274 274 272 270 268 268 266 264 261 259 259 259 259 259 259 260 260 260 259 259 258 259 260 261 260 260
293 292 292 290 289 289 286 285 283 281 281 281 278 277 277 276 274 275 275 275 272 269 269 268 266 264 261 260 260 260 260 261 261 261 261 260 258 258 258 259 259 258 258
293 293 292 291 290 291 291 289 286 283 282 282 281 279 277 277 276 276 276 275 274 271 270 269 267 266 264 261 260 260 261 261 262 262 261 259 259 258 257 258 258 258 258
296 295 295 293 293 293 293 292 291 287 284 283 282 280 278 277 276 276 275 275 274 273 271 268 267 267 265 263 262 263 263 262 262 260 259 258 258 258 257 258 258 258 258
298 298 299 298 296 296 295 292 290 289 287 285 283 281 281 280 279 278 276 275 275 275 272 267 266 266 264 264 263 263 263 262 261 260 259 259 259 258 257 257 257 257 258
299 301 302 300 300 300 299 297 295 293 291 288 283 281 281 281 282 280 279 279 278 277 274 267 265 266 264 264 263 263 264 263 262 260 259 259 258 258 257 256 256 257 258
303 303 303 303 303 302 300 299 298 296 293 290 288 286 285 285 285 284 282 281 279 279 276 270 269 270 266 266 266 266 263 261 261 260 259 259 259 260 259 258 257 258 259
305 305 306 307 307 306 304 303 303 301 297 294 293 292 290 289 288 287 286 283 281 280 278 274 272 271 268 266 266 266 264 262 260 259 258 258 258 259 260 261 260 260 261
310 310 310 310 310 310 309 308 307 305 303 301 299 298 298 297 294 291 287 284 284 283 279 276 274 270 268 267 264 265 265 264 261 259 258 259 258 258 259 262 261 261 261
316 317 316 316 315 314 313 312 313 312 312 311 310 308 307 304 298 295 293 290 287 284 283 280 276 272 268 265 264 265 266 264 262 262 260 259 257 256 258 260 261 263 263
322 322 322 322 323 321 318 318 319 319 322 321 320 318 318 312 304 299 299 298 295 291 288 286 283 275 265 262 262 264 264 263 262 263 263 261 259 258 258 260 260 262 262
327 327 328 329 331 332 331 330 330 331 330 331 329 328 327 324 317 309 307 306 304 303 298 294 288 270 263 259 257 264 267 263 259 263 263 263 262 261 261 261 261 263 263
335 336 335 336 337 335 338 344 344 340 339 337 335 333 334 336 333 325 321 320 318 314 308 306 294 280 268 252 256 263 264 258 255 259 262 265 265 266 266 266 266 266 267
340 338 340 342 344 344 347 349 350 348 346 346 344 341 342 344 343 339 337 336 333 327 316 310 309 299 273 260 258 258 260 253 252 258 266 271 271 273 271 270 270 271 271
339 343 345 345 349 354 350 348 350 349 349 349 349 349 348 347 351 354 351 349 349 349 347 345 342 323 275 258 255 257 254 260 260 263 269 276 280 280 278 275 276 278 278